EW0427 Weather Reports


time (UTC)temp
C
wind
direction
speed
KPH
gust
KPH
rain 1hr
cm
rain 24hr
cm
rain mn
cm
humidity
%
barometer
mb
20260506103037 7 0 1.6 4.8 0.08 2.64 0.71 95 1008.2
20260506101537 7 309 3.2 8.0 0.08 2.64 0.71 95 1008.7
20260506100036 7 309 3.2 8.0 0.10 2.64 0.71 95 1008.9
20260506094548 7 309 6.4 11.3 0.08 2.62 0.66 95 1009.0
20260506093038 6 309 3.2 8.0 0.10 2.59 0.64 95 1008.6
20260506091538 6 309 3.2 6.4 0.13 2.59 0.64 95 1008.3
20260506090037 6 309 0.0 8.0 0.13 2.57 0.61 95 1008.0
20260506084538 7 309 4.8 11.3 0.15 2.54 0.58 95 1008.7
20260506083037 6 309 4.8 11.3 0.13 2.49 0.53 95 1008.9
20260506081537 6 309 4.8 11.3 0.13 2.46 0.51 95 1008.8
20260506073042 6 308 1.6 6.4 0.08 2.36 0.41 95 1008.4
20260506071537 6 308 1.6 4.8 0.08 2.34 0.38 95 1008.4
20260506061538 7 0 0.0 4.8 0.13 2.26 0.30 95 1008.5
20260506044545 7 307 4.8 12.9 0.13 2.06 0.10 95 1009.5
20260506043037 8 300 3.2 14.5 0.18 2.03 0.08 95 1009.7
20260506041536 8 299 4.8 11.3 0.18 1.98 0.03 95 1009.9
20260506040054 8 299 4.8 12.9 0.23 1.96 0.00 95 1009.9
20260506034543 8 299 3.2 6.4 0.28 1.93 1.93 95 1010.1
20260506033039 8 299 1.6 8.0 0.30 1.85 1.85 95 1010.2
20260506031553 8 0 0.0 4.8 0.33 1.80 1.80 95 1009.6
20260506030038 8 299 0.0 3.2 0.33 1.73 1.73 95 1009.6
20260506024537 8 299 0.0 4.8 0.33 1.65 1.65 95 1009.4
20260506023037 8 299 3.2 6.4 0.30 1.55 1.55 95 1009.9
20260506021541 8 0 0.0 0.0 0.25 1.47 1.47 95 1009.9
20260506020039 8 0 0.0 3.2 0.18 1.40 1.40 95 1009.6
20260506014539 8 299 1.6 4.8 0.10 1.32 1.32 94 1009.5
20260506013037 8 299 0.0 4.8 0.03 1.24 1.24 94 1009.5
20260506011538 8 0 0.0 0.0 0.10 1.22 1.22 94 1009.3
20260506010042 8 0 0.0 1.6 0.20 1.22 1.22 94 1009.3
20260506004541 8 0 0.0 6.4 0.30 1.22 1.22 94 1009.1
20260506003038 8 299 3.2 8.0 0.43 1.22 1.22 94 1009.2
20260506001537 8 0 0.0 6.4 0.36 1.12 1.12 94 1009.2
20260506000037 8 298 3.2 8.0 0.28 1.02 1.02 94 1009.6
20260505234542 8 298 0.0 17.7 0.18 0.89 0.89 94 1009.7
20260505233041 8 305 1.6 8.0 0.15 0.79 0.79 94 1009.4
20260505231548 8 304 6.4 14.5 0.15 0.76 0.76 94 1009.4
20260505230037 8 302 6.4 12.9 0.23 0.74 0.74 94 1009.6
20260505224537 9 302 3.2 11.3 0.33 0.71 0.71 94 1009.5
20260505223044 9 302 9.7 16.1 0.33 0.61 0.61 93 1009.4
20260505221537 10 309 3.2 11.3 0.38 0.61 0.61 93 1009.5
20260505220041 10 310 8.0 17.7 0.38 0.51 0.51 93 1009.4
20260505214549 11 295 11.3 24.1 0.33 0.38 0.38 93 1009.8
20260505213038 12 317 9.7 17.7 0.23 0.28 0.28 93 1009.1
20260505211538 12 302 8.0 16.1 0.20 0.23 0.23 93 1008.8
20260505210037 12 299 8.0 16.1 0.13 0.13 0.13 92 1009.1
20260505204537 12 298 4.8 12.9 0.05 0.05 0.05 92 1009.0
20260505203036 13 311 9.7 17.7 0.05 0.05 0.05 91 1008.9
20260505201536 13 297 11.3 19.3 0.03 0.03 0.03 90 1008.9
20260505200043 13 309 9.7 14.5 0.00 0.00 0.00 88 1008.9
20260505194539 14 242 11.3 19.3 0.00 0.00 0.00 87 1009.1
20260505193037 15 298 6.4 14.5 0.00 0.00 0.00 86 1009.1
20260505191540 15 292 11.3 25.7 0.00 0.00 0.00 83 1009.1
20260505190039 15 294 11.3 20.9 0.00 0.00 0.00 79 1009.2
20260505184541 16 297 9.7 22.5 0.00 0.00 0.00 78 1009.2
20260505183040 16 296 12.9 27.4 0.00 0.00 0.00 76 1009.1
20260505181540 16 313 14.5 25.7 0.00 0.00 0.00 77 1009.1
20260505180040 16 281 14.5 33.8 0.00 0.00 0.00 77 1008.9
20260505174552 16 299 16.1 30.6 0.00 0.00 0.00 76 1008.9
20260505173038 16 287 14.5 25.7 0.00 0.00 0.00 75 1008.7
20260505171539 16 293 12.9 29.0 0.00 0.00 0.00 74 1008.7
20260505170037 17 286 14.5 30.6 0.00 0.00 0.00 70 1008.6
20260505164537 18 313 20.9 37.0 0.00 0.00 0.00 64 1008.3
20260505163051 20 243 16.1 35.4 0.00 0.00 0.00 61 1008.0
20260505161538 20 281 19.3 35.4 0.00 0.00 0.00 63 1008.0
20260505153037 18 219 11.3 30.6 0.00 0.00 0.00 67 1007.6
20260505151537 18 220 14.5 43.5 0.00 0.00 0.00 68 1008.1
20260505124540 16 196 12.9 27.4 0.00 0.00 0.00 75 1006.9
20260505123043 16 194 8.0 24.1 0.00 0.00 0.00 75 1006.7
20260505121536 16 235 12.9 32.2 0.00 0.00 0.00 73 1006.6
20260505120040 17 258 22.5 40.2 0.00 0.00 0.00 69 1006.7
20260505114537 17 210 16.1 30.6 0.00 0.00 0.00 68 1006.6
20260505113041 17 217 11.3 29.0 0.00 0.00 0.00 69 1006.5
20260505111540 17 246 9.7 25.7 0.00 0.00 0.00 69 1006.2